Time,TemperatureF,DewpointF,PressureIn,WindDirection,WindDirectionDegrees,WindSpeedMPH,WindSpeedGustMPH,Humidity,HourlyPrecipIn,Conditions,Clouds,dailyrainin,SoftwareType,DateUTC
2013-10-06 00:08:00,54.6,43.0,30.11,ESE,102,0.0,0.0,64,0.00,,,0.00,weatherlink.com 1.10,2013-10-06 07:08:00,
2013-10-06 00:23:00,53.9,45.0,30.11,ESE,102,0.0,0.0,72,0.00,,,0.00,weatherlink.com 1.10,2013-10-06 07:23:00,
2013-10-06 00:38:00,52.0,44.0,30.11,ESE,102,0.0,0.0,73,0.00,,,0.00,weatherlink.com 1.10,2013-10-06 07:38:00,
2013-10-06 00:53:00,49.9,42.0,30.11,ESE,102,0.0,0.0,75,0.00,,,0.00,weatherlink.com 1.10,2013-10-06 07:53:00,
2013-10-06 01:08:00,49.4,42.0,30.11,ESE,102,0.0,0.0,77,0.00,,,0.00,weatherlink.com 1.10,2013-10-06 08:08:00,
2013-10-06 01:23:00,49.2,42.0,30.11,ESE,102,0.0,0.0,76,0.00,,,0.00,weatherlink.com 1.10,2013-10-06 08:23:00,
2013-10-06 01:39:00,47.8,42.0,30.11,ESE,102,0.0,0.0,80,0.00,,,0.00,weatherlink.com 1.10,2013-10-06 08:39:00,
2013-10-06 01:54:00,46.9,42.0,30.11,ESE,102,0.0,0.0,84,0.00,,,0.00,weatherlink.com 1.10,2013-10-06 08:54:00,
2013-10-06 02:09:00,47.2,42.0,30.11,ESE,102,0.0,0.0,83,0.00,,,0.00,weatherlink.com 1.10,2013-10-06 09:09:00,
2013-10-06 02:24:00,47.7,43.0,30.11,ESE,102,0.0,0.0,83,0.00,,,0.00,weatherlink.com 1.10,2013-10-06 09:24:00,
2013-10-06 02:39:00,46.5,40.0,30.10,ESE,102,0.0,0.0,79,0.00,,,0.00,weatherlink.com 1.10,2013-10-06 09:39:00,
2013-10-06 02:54:00,45.9,42.0,30.10,ESE,102,0.0,0.0,86,0.00,,,0.00,weatherlink.com 1.10,2013-10-06 09:54:00,
2013-10-06 03:09:00,45.9,43.0,30.09,ESE,102,0.0,0.0,89,0.00,,,0.00,weatherlink.com 1.10,2013-10-06 10:09:00,
2013-10-06 03:24:00,45.4,42.0,30.09,ESE,102,0.0,0.0,87,0.00,,,0.00,weatherlink.com 1.10,2013-10-06 10:24:00,
2013-10-06 03:39:00,46.5,43.0,30.09,ESE,102,0.0,0.0,87,0.00,,,0.00,weatherlink.com 1.10,2013-10-06 10:39:00,
2013-10-06 03:54:00,46.9,43.0,30.09,ESE,102,0.0,0.0,87,0.00,,,0.00,weatherlink.com 1.10,2013-10-06 10:54:00,
2013-10-06 04:09:00,45.9,41.0,30.09,ESE,102,0.0,0.0,83,0.00,,,0.00,weatherlink.com 1.10,2013-10-06 11:09:00,
2013-10-06 04:24:00,44.5,42.0,30.09,ESE,102,0.0,0.0,89,0.00,,,0.00,weatherlink.com 1.10,2013-10-06 11:24:00,
2013-10-06 04:39:00,43.5,41.0,30.09,ESE,102,0.0,0.0,89,0.00,,,0.00,weatherlink.com 1.10,2013-10-06 11:39:00,
2013-10-06 04:54:00,43.5,41.0,30.09,ESE,102,0.0,0.0,91,0.00,,,0.00,weatherlink.com 1.10,2013-10-06 11:54:00,
2013-10-06 05:09:00,43.7,41.0,30.09,ESE,102,0.0,0.0,90,0.00,,,0.00,weatherlink.com 1.10,2013-10-06 12:09:00,
2013-10-06 05:24:00,42.2,39.0,30.09,ESE,102,0.0,2.0,89,0.00,,,0.00,weatherlink.com 1.10,2013-10-06 12:24:00,
2013-10-06 05:39:00,41.7,39.0,30.10,ESE,102,0.0,0.0,90,0.00,,,0.00,weatherlink.com 1.10,2013-10-06 12:39:00,
2013-10-06 05:54:00,42.7,41.0,30.10,ESE,102,0.0,0.0,95,0.00,,,0.00,weatherlink.com 1.10,2013-10-06 12:54:00,
2013-10-06 06:09:00,43.7,42.0,30.10,ESE,102,0.0,0.0,95,0.00,,,0.00,weatherlink.com 1.10,2013-10-06 13:09:00,
2013-10-06 06:24:00,43.9,43.0,30.10,ESE,102,0.0,0.0,95,0.00,,,0.00,weatherlink.com 1.10,2013-10-06 13:24:00,
2013-10-06 06:39:00,43.8,42.0,30.10,ESE,102,0.0,0.0,94,0.00,,,0.00,weatherlink.com 1.10,2013-10-06 13:39:00,
2013-10-06 06:54:00,42.3,40.0,30.11,ESE,102,0.0,0.0,91,0.00,,,0.00,weatherlink.com 1.10,2013-10-06 13:54:00,
2013-10-06 07:09:00,41.9,40.0,30.11,ESE,102,0.0,0.0,93,0.00,,,0.00,weatherlink.com 1.10,2013-10-06 14:09:00,
2013-10-06 07:24:00,42.5,41.0,30.11,ESE,102,0.0,0.0,95,0.00,,,0.00,weatherlink.com 1.10,2013-10-06 14:24:00,
2013-10-06 07:39:00,43.0,42.0,30.12,ESE,102,0.0,0.0,95,0.00,,,0.00,weatherlink.com 1.10,2013-10-06 14:39:00,
2013-10-06 07:54:00,44.0,43.0,30.12,ESE,102,0.0,0.0,95,0.00,,,0.00,weatherlink.com 1.10,2013-10-06 14:54:00,
2013-10-06 08:09:00,45.4,44.0,30.12,ESE,102,0.0,0.0,94,0.00,,,0.00,weatherlink.com 1.10,2013-10-06 15:09:00,
2013-10-06 08:24:00,47.7,46.0,30.13,ESE,102,0.0,0.0,92,0.00,,,0.00,weatherlink.com 1.10,2013-10-06 15:24:00,
2013-10-06 08:39:00,51.7,47.0,30.13,ESE,102,0.0,0.0,85,0.00,,,0.00,weatherlink.com 1.10,2013-10-06 15:39:00,
2013-10-06 08:54:00,55.1,48.0,30.13,East,99,1.0,2.0,76,0.00,,,0.00,weatherlink.com 1.10,2013-10-06 15:54:00,
2013-10-06 09:10:00,58.5,45.0,30.13,North,360,3.0,4.0,62,0.00,,,0.00,weatherlink.com 1.10,2013-10-06 16:10:00,
2013-10-06 09:25:00,61.6,44.0,30.13,NNE,25,1.0,4.0,53,0.00,,,0.00,weatherlink.com 1.10,2013-10-06 16:25:00,
2013-10-06 09:40:00,63.6,43.0,30.14,NNW,346,1.0,3.0,48,0.00,,,0.00,weatherlink.com 1.10,2013-10-06 16:40:00,
2013-10-06 09:55:00,64.6,45.0,30.14,West,280,3.0,4.0,50,0.00,,,0.00,weatherlink.com 1.10,2013-10-06 16:55:00,
2013-10-06 10:10:00,65.5,43.0,30.14,WNW,294,4.0,5.0,44,0.00,,,0.00,weatherlink.com 1.10,2013-10-06 17:10:00,
2013-10-06 10:25:00,66.6,41.0,30.13,WNW,302,1.0,5.0,40,0.00,,,0.00,weatherlink.com 1.10,2013-10-06 17:25:00,
2013-10-06 10:40:00,67.7,40.0,30.13,WNW,289,0.0,4.0,36,0.00,,,0.00,weatherlink.com 1.10,2013-10-06 17:40:00,
2013-10-06 10:55:00,69.4,42.0,30.13,NNW,338,2.0,4.0,37,0.00,,,0.00,weatherlink.com 1.10,2013-10-06 17:55:00,
2013-10-06 11:10:00,70.6,45.0,30.13,West,274,1.0,5.0,40,0.00,,,0.00,weatherlink.com 1.10,2013-10-06 18:10:00,
2013-10-06 11:25:00,71.1,43.0,30.12,North,355,0.0,4.0,36,0.00,,,0.00,weatherlink.com 1.10,2013-10-06 18:25:00,
2013-10-06 11:40:00,72.6,41.0,30.11,NNW,346,1.0,6.0,32,0.00,,,0.00,weatherlink.com 1.10,2013-10-06 18:40:00,
2013-10-06 11:55:00,74.1,42.0,30.11,NNW,342,4.0,5.0,31,0.00,,,0.00,weatherlink.com 1.10,2013-10-06 18:55:00,
2013-10-06 12:10:00,74.2,42.0,30.10,NW,325,3.0,6.0,31,0.00,,,0.00,weatherlink.com 1.10,2013-10-06 19:10:00,
2013-10-06 12:25:00,74.5,42.0,30.10,NW,313,0.0,6.0,31,0.00,,,0.00,weatherlink.com 1.10,2013-10-06 19:25:00,
2013-10-06 12:40:00,77.0,41.0,30.09,NW,304,4.0,6.0,28,0.00,,,0.00,weatherlink.com 1.10,2013-10-06 19:40:00,
2013-10-06 12:55:00,78.3,42.0,30.09,NNW,333,2.0,8.0,27,0.00,,,0.00,weatherlink.com 1.10,2013-10-06 19:55:00,
2013-10-06 13:10:00,79.0,40.0,30.08,NW,323,4.0,5.0,25,0.00,,,0.00,weatherlink.com 1.10,2013-10-06 20:10:00,
2013-10-06 13:25:00,79.1,41.0,30.08,North,5,3.0,4.0,26,0.00,,,0.00,weatherlink.com 1.10,2013-10-06 20:25:00,
2013-10-06 13:41:00,79.9,42.0,30.07,NNE,17,2.0,5.0,26,0.00,,,0.00,weatherlink.com 1.10,2013-10-06 20:41:00,
2013-10-06 13:56:00,80.8,40.0,30.06,NNE,15,1.0,4.0,23,0.00,,,0.00,weatherlink.com 1.10,2013-10-06 20:56:00,
2013-10-06 14:11:00,81.9,41.0,30.05,ENE,59,4.0,5.0,23,0.00,,,0.00,weatherlink.com 1.10,2013-10-06 21:11:00,
2013-10-06 14:26:00,81.7,38.0,30.05,NE,40,1.0,4.0,21,0.00,,,0.00,weatherlink.com 1.10,2013-10-06 21:26:00,
2013-10-06 14:41:00,82.2,37.0,30.04,East,84,0.0,4.0,20,0.00,,,0.00,weatherlink.com 1.10,2013-10-06 21:41:00,
2013-10-06 14:56:00,82.6,38.0,30.04,SSE,159,1.0,3.0,20,0.00,,,0.00,weatherlink.com 1.10,2013-10-06 21:56:00,
2013-10-06 15:11:00,82.7,39.0,30.03,ENE,60,0.0,4.0,21,0.00,,,0.00,weatherlink.com 1.10,2013-10-06 22:11:00,
2013-10-06 15:26:00,83.2,38.0,30.03,ESE,119,0.0,3.0,20,0.00,,,0.00,weatherlink.com 1.10,2013-10-06 22:26:00,
2013-10-06 15:41:00,83.3,37.0,30.02,ENE,64,2.0,3.0,19,0.00,,,0.00,weatherlink.com 1.10,2013-10-06 22:41:00,
2013-10-06 15:56:00,83.1,39.0,30.01,ENE,65,0.0,2.0,21,0.00,,,0.00,weatherlink.com 1.10,2013-10-06 22:56:00,
2013-10-06 16:11:00,83.1,37.0,30.01,ENE,74,0.0,1.0,19,0.00,,,0.00,weatherlink.com 1.10,2013-10-06 23:11:00,
2013-10-06 16:26:00,82.3,46.0,30.01,ENE,74,0.0,0.0,28,0.00,,,0.00,weatherlink.com 1.10,2013-10-06 23:26:00,
2013-10-06 16:41:00,81.4,46.0,30.00,ENE,74,0.0,0.0,29,0.00,,,0.00,weatherlink.com 1.10,2013-10-06 23:41:00,
2013-10-06 16:56:00,82.5,39.0,30.00,ESE,123,0.0,2.0,21,0.00,,,0.00,weatherlink.com 1.10,2013-10-06 23:56:00,
2013-10-06 17:11:00,84.8,40.0,29.99,SSW,201,1.0,2.0,20,0.00,,,0.00,weatherlink.com 1.10,2013-10-07 00:11:00,
2013-10-06 17:26:00,83.9,42.0,29.99,SSW,209,0.0,3.0,23,0.00,,,0.00,weatherlink.com 1.10,2013-10-07 00:26:00,
2013-10-06 17:41:00,81.5,43.0,29.99,SSW,209,0.0,0.0,26,0.00,,,0.00,weatherlink.com 1.10,2013-10-07 00:41:00,
2013-10-06 17:56:00,78.8,47.0,29.99,SSW,209,0.0,0.0,32,0.00,,,0.00,weatherlink.com 1.10,2013-10-07 00:56:00,
2013-10-06 18:11:00,77.2,47.0,29.99,SSW,209,0.0,0.0,34,0.00,,,0.00,weatherlink.com 1.10,2013-10-07 01:11:00,
2013-10-06 18:26:00,74.6,45.0,29.99,SSW,209,0.0,0.0,35,0.00,,,0.00,weatherlink.com 1.10,2013-10-07 01:26:00,
2013-10-06 18:41:00,73.1,44.0,29.98,SSW,209,0.0,0.0,35,0.00,,,0.00,weatherlink.com 1.10,2013-10-07 01:41:00,
2013-10-06 18:56:00,71.4,44.0,29.99,SSW,209,0.0,0.0,37,0.00,,,0.00,weatherlink.com 1.10,2013-10-07 01:56:00,
2013-10-06 19:11:00,70.3,43.0,29.99,SSW,209,0.0,0.0,38,0.00,,,0.00,weatherlink.com 1.10,2013-10-07 02:11:00,
2013-10-06 19:26:00,69.2,44.0,29.99,SSW,209,0.0,0.0,40,0.00,,,0.00,weatherlink.com 1.10,2013-10-07 02:26:00,
2013-10-06 19:41:00,67.9,44.0,29.98,SSW,209,0.0,0.0,43,0.00,,,0.00,weatherlink.com 1.10,2013-10-07 02:41:00,
2013-10-06 19:56:00,66.7,43.0,29.99,SSW,209,0.0,0.0,43,0.00,,,0.00,weatherlink.com 1.10,2013-10-07 02:56:00,
2013-10-06 20:11:00,66.1,43.0,29.99,SSW,209,0.0,0.0,44,0.00,,,0.00,weatherlink.com 1.10,2013-10-07 03:11:00,
2013-10-06 20:26:00,65.5,44.0,29.99,SSW,209,0.0,0.0,46,0.00,,,0.00,weatherlink.com 1.10,2013-10-07 03:26:00,
2013-10-06 20:41:00,65.2,45.0,29.98,SSW,209,0.0,0.0,48,0.00,,,0.00,weatherlink.com 1.10,2013-10-07 03:41:00,
2013-10-06 20:56:00,64.1,47.0,29.98,SSW,209,0.0,0.0,54,0.00,,,0.00,weatherlink.com 1.10,2013-10-07 03:56:00,
2013-10-06 21:11:00,63.1,45.0,29.98,SSW,209,0.0,0.0,53,0.00,,,0.00,weatherlink.com 1.10,2013-10-07 04:11:00,
2013-10-06 21:26:00,62.2,47.0,29.99,SSW,209,0.0,0.0,59,0.00,,,0.00,weatherlink.com 1.10,2013-10-07 04:26:00,
2013-10-06 21:41:00,60.7,45.0,29.98,SSW,209,0.0,0.0,56,0.00,,,0.00,weatherlink.com 1.10,2013-10-07 04:41:00,
2013-10-06 21:56:00,60.3,48.0,29.98,SSW,209,0.0,0.0,65,0.00,,,0.00,weatherlink.com 1.10,2013-10-07 04:56:00,
2013-10-06 22:11:00,59.3,49.0,29.99,SSW,209,0.0,0.0,69,0.00,,,0.00,weatherlink.com 1.10,2013-10-07 05:11:00,
2013-10-06 22:26:00,57.0,48.0,29.99,SSW,209,0.0,0.0,71,0.00,,,0.00,weatherlink.com 1.10,2013-10-07 05:26:00,
2013-10-06 22:41:00,55.6,45.0,29.99,SSW,209,0.0,2.0,67,0.00,,,0.00,weatherlink.com 1.10,2013-10-07 05:41:00,
2013-10-06 22:56:00,57.1,48.0,29.98,SSW,209,0.0,2.0,71,0.00,,,0.00,weatherlink.com 1.10,2013-10-07 05:56:00,
2013-10-06 23:11:00,58.3,47.0,29.98,SSW,209,0.0,2.0,66,0.00,,,0.00,weatherlink.com 1.10,2013-10-07 06:11:00,
2013-10-06 23:26:00,58.8,47.0,29.98,SSW,209,0.0,0.0,65,0.00,,,0.00,weatherlink.com 1.10,2013-10-07 06:26:00,
2013-10-06 23:41:00,58.5,46.0,29.97,SSW,209,0.0,1.0,64,0.00,,,0.00,weatherlink.com 1.10,2013-10-07 06:41:00,
2013-10-06 23:56:00,58.5,46.0,29.97,SSW,209,0.0,0.0,63,0.00,,,0.00,weatherlink.com 1.10,2013-10-07 06:56:00,